Weather in Vyry

Ukraine / Sumi District     51°02′24″N   34°24′22″E
temp.,
°C
wind,
m/s
gust,
m/s
humid.,
%
clouds,
%
prec.,
mm/h
press.,
hPa
HPBL,
m
24 july, sat
sat2400:00+16nw226981 0.0 101317
03:00+15wnw22735 0.0 101418
06:00+16w347794 0.0 101377
09:00+20wnw356518 0.0 1014388
12:00+24nw455737 0.6 10141052
15:00+24n3557100 1.0 1014657
18:00+21n357365 2.0 101593
21:00+18nne22794 3.5 101611
25 july, sun
sun2500:00+16e35855 0.0 101777
03:00+15ese348514 0.0 101854
06:00+15ese35829 0.0 101985
09:00+19se356891 0.0 1020290
12:00+25se344937 0.0 10201245
15:00+26sse334479 0.0 10201824
18:00+26e345136 0.0 1020840
21:00+19sse337464 0.0 102147
26 july, mon
mon2600:00+20ese2266100 0.1 102223
03:00+19ese365957 0.1 1022136
06:00+17sse346939 0.1 102360
09:00+21se465677 0.1 1023323
12:00+20se2361100 0.1 1024103
15:00+22e115698 0.1 102380
18:00+24nne115226 0.0 1022123
21:00+20ene34615 0.0 102342
27 july, tue
tue2700:00+18ese36615 0.0 102392
03:00+17ese33633 0.0 102332
06:00+16e33645 0.0 102436
09:00+22e23523 0.0 1023320
12:00+26ene23410 0.0 10231224
15:00+28ene22370 0.0 10212012
18:00+28n12415 0.0 10211562
21:00+21ne33583 0.0 102133
28 july, wed
wed2800:00+19se34550 0.0 102162
03:00+18se33540 0.0 102039
06:00+17sse36593 0.0 102098
09:00+23sse57495 0.0 1019369
12:00+28s45385 0.0 10181402
15:00+29ssw4536100 0.0 10162333
18:00+20nne4677100 0.4 101594
21:00+22ese495696 0.5 1012152